TimeCDT,TemperatureF,Dew PointF,Humidity,Sea Level PressureIn,VisibilityMPH,Wind Direction,Wind SpeedMPH,Gust SpeedMPH,PrecipitationIn,Events,Conditions,WindDirDegrees,DateUTC
12:15 AM,68.0,62.6,83,30.01,10.0,SSW,4.6,-,N/A,,Clear,210,2012-11-01 05:15:00
12:35 AM,66.2,62.6,88,30.01,10.0,SSW,4.6,-,N/A,,Clear,210,2012-11-01 05:35:00
12:55 AM,66.2,62.6,88,30.01,10.0,SW,3.5,-,N/A,,Clear,220,2012-11-01 05:55:00
1:15 AM,64.4,60.8,88,30.01,10.0,SW,4.6,-,N/A,,Clear,220,2012-11-01 06:15:00
1:35 AM,64.4,60.8,88,30.01,10.0,SW,3.5,-,N/A,,Clear,230,2012-11-01 06:35:00
1:55 AM,64.4,60.8,88,30.01,10.0,Calm,Calm,-,N/A,,Clear,0,2012-11-01 06:55:00
2:15 AM,62.6,59.0,88,30.02,7.0,Calm,Calm,-,N/A,,Clear,0,2012-11-01 07:15:00
2:35 AM,60.8,59.0,94,30.02,7.0,Calm,Calm,-,N/A,,Clear,0,2012-11-01 07:35:00
2:55 AM,60.8,59.0,94,30.01,7.0,Calm,Calm,-,N/A,,Clear,0,2012-11-01 07:55:00
3:15 AM,59.0,55.4,88,30.01,10.0,Calm,Calm,-,N/A,,Clear,0,2012-11-01 08:15:00
3:35 AM,59.0,57.2,94,30.01,5.0,Calm,Calm,-,N/A,,Clear,0,2012-11-01 08:35:00
3:55 AM,60.8,59.0,94,30.01,1.8,Calm,Calm,-,N/A,,Mist,0,2012-11-01 08:55:00
4:15 AM,59.0,55.4,88,30.01,1.0,Calm,Calm,-,N/A,,Mostly Cloudy,0,2012-11-01 09:15:00
4:35 AM,59.0,55.4,88,30.01,0.5,Calm,Calm,-,N/A,Fog,Fog,0,2012-11-01 09:35:00
4:55 AM,59.0,55.4,88,30.01,4.0,Calm,Calm,-,N/A,,Overcast,0,2012-11-01 09:55:00
5:15 AM,57.2,55.4,94,30.01,0.2,Calm,Calm,-,N/A,Fog,Fog,0,2012-11-01 10:15:00
5:35 AM,57.2,55.4,94,30.01,0.8,Calm,Calm,-,N/A,,Overcast,0,2012-11-01 10:35:00
5:55 AM,59.0,55.4,88,30.01,0.2,Calm,Calm,-,N/A,Fog,Fog,0,2012-11-01 10:55:00
6:15 AM,59.0,55.4,88,30.01,0.2,Calm,Calm,-,N/A,Fog,Fog,0,2012-11-01 11:15:00
6:35 AM,59.0,55.4,88,30.01,0.2,Calm,Calm,-,N/A,Fog,Fog,0,2012-11-01 11:35:00
6:55 AM,59.0,57.2,94,30.02,0.2,Calm,Calm,-,N/A,Fog,Fog,0,2012-11-01 11:55:00
7:15 AM,60.8,57.2,88,30.02,0.2,Calm,Calm,-,N/A,Fog,Fog,0,2012-11-01 12:15:00
7:35 AM,60.8,59.0,94,30.03,0.5,Calm,Calm,-,N/A,Fog,Fog,0,2012-11-01 12:35:00
7:55 AM,60.8,59.0,94,30.04,0.2,Calm,Calm,-,N/A,Fog,Fog,0,2012-11-01 12:55:00
8:15 AM,60.8,59.0,94,30.05,0.2,Calm,Calm,-,N/A,Fog,Fog,0,2012-11-01 13:15:00
8:35 AM,62.6,59.0,88,30.05,0.2,Calm,Calm,-,N/A,Fog,Fog,0,2012-11-01 13:35:00
8:55 AM,62.6,60.8,94,30.05,0.2,Calm,Calm,-,N/A,Fog,Fog,0,2012-11-01 13:55:00
9:15 AM,64.4,60.8,88,30.06,0.2,Calm,Calm,-,N/A,Fog,Fog,0,2012-11-01 14:15:00
9:35 AM,66.2,62.6,88,30.06,0.2,Calm,Calm,-,N/A,Fog,Fog,0,2012-11-01 14:35:00
9:55 AM,68.0,64.4,88,30.06,0.2,West,4.6,-,N/A,Fog,Fog,260,2012-11-01 14:55:00
10:15 AM,68.0,64.4,88,30.06,0.2,West,4.6,-,N/A,Fog,Fog,260,2012-11-01 15:15:00
10:35 AM,68.0,64.4,88,30.07,0.8,WSW,3.5,-,N/A,,Overcast,240,2012-11-01 15:35:00
10:55 AM,69.8,64.4,83,30.07,3.0,WSW,3.5,-,N/A,,Overcast,240,2012-11-01 15:55:00
11:15 AM,69.8,64.4,83,30.07,10.0,WSW,4.6,-,N/A,,Overcast,240,2012-11-01 16:15:00
11:35 AM,69.8,64.4,83,30.06,10.0,WSW,4.6,-,N/A,,Mostly Cloudy,250,2012-11-01 16:35:00
11:55 AM,71.6,66.2,83,30.06,10.0,SW,4.6,-,N/A,,Scattered Clouds,230,2012-11-01 16:55:00
12:15 PM,77.0,64.4,65,30.05,10.0,SW,5.8,-,N/A,,Clear,220,2012-11-01 17:15:00
12:35 PM,78.8,62.6,57,30.04,10.0,SW,9.2,-,N/A,,Clear,230,2012-11-01 17:35:00
12:55 PM,78.8,60.8,54,-9999,10.0,North,-9999.0,-,N/A,,Clear,0,2012-11-01 17:55:00
1:15 PM,-9999,-9999,N/A,-9999,-9999.0,North,-9999.0,-,N/A,,Unknown,0,2012-11-01 18:15:00
1:35 PM,-9999,-9999,N/A,-9999,-9999.0,North,-9999.0,-,N/A,,Unknown,0,2012-11-01 18:35:00
1:55 PM,84.2,62.6,48,30.01,-9999.0,SSW,5.8,-,0.03,Thunderstorm,Thunderstorm,210,2012-11-01 18:55:00
2:15 PM,86.0,62.6,45,30.00,10.0,South,4.6,-,N/A,,Clear,180,2012-11-01 19:15:00
2:35 PM,86.0,60.8,43,29.99,10.0,SSE,5.8,-,N/A,,Clear,150,2012-11-01 19:35:00
2:55 PM,86.0,62.6,45,29.98,10.0,SSE,4.6,-,N/A,,Clear,160,2012-11-01 19:55:00
3:15 PM,86.0,62.6,45,29.97,10.0,South,5.8,-,N/A,,Clear,190,2012-11-01 20:15:00
3:35 PM,86.0,62.6,45,29.97,10.0,SSE,6.9,-,N/A,,Clear,160,2012-11-01 20:35:00
3:55 PM,86.0,60.8,43,29.97,10.0,South,4.6,-,N/A,,Clear,180,2012-11-01 20:55:00
4:15 PM,86.0,62.6,45,29.96,10.0,South,6.9,-,N/A,,Clear,190,2012-11-01 21:15:00
4:35 PM,86.0,62.6,45,29.96,7.0,South,4.6,-,N/A,,Clear,180,2012-11-01 21:35:00
4:55 PM,86.0,62.6,45,29.96,10.0,SSW,5.8,-,N/A,,Clear,200,2012-11-01 21:55:00
5:15 PM,86.0,62.6,45,29.96,7.0,SSE,4.6,-,N/A,,Clear,160,2012-11-01 22:15:00
5:35 PM,86.0,60.8,43,29.96,7.0,SSW,6.9,-,N/A,,Clear,200,2012-11-01 22:35:00
5:55 PM,84.2,60.8,45,29.96,10.0,South,4.6,-,N/A,,Clear,180,2012-11-01 22:55:00
6:15 PM,82.4,62.6,51,29.96,10.0,South,3.5,-,N/A,,Clear,190,2012-11-01 23:15:00
6:35 PM,80.6,62.6,54,29.96,10.0,South,3.5,-,N/A,,Clear,180,2012-11-01 23:35:00
6:55 PM,77.0,62.6,61,29.96,10.0,Calm,Calm,-,N/A,,Clear,0,2012-11-01 23:55:00
7:15 PM,73.4,62.6,69,29.97,10.0,Calm,Calm,-,N/A,,Clear,0,2012-11-02 00:15:00
7:35 PM,71.6,62.6,73,29.97,10.0,Calm,Calm,-,N/A,,Clear,0,2012-11-02 00:35:00
7:55 PM,69.8,62.6,78,29.98,10.0,Calm,Calm,-,N/A,,Clear,0,2012-11-02 00:55:00
8:15 PM,69.8,60.8,73,29.98,10.0,Calm,Calm,-,N/A,,Clear,0,2012-11-02 01:15:00
8:35 PM,68.0,60.8,78,29.98,10.0,Calm,Calm,-,N/A,,Clear,0,2012-11-02 01:35:00
8:55 PM,68.0,60.8,78,29.99,10.0,South,5.8,-,N/A,,Clear,170,2012-11-02 01:55:00
9:15 PM,71.6,62.6,73,29.99,10.0,South,5.8,-,N/A,,Clear,180,2012-11-02 02:15:00
9:35 PM,71.6,62.6,73,29.99,10.0,South,5.8,-,N/A,,Clear,180,2012-11-02 02:35:00
9:55 PM,71.6,66.2,83,29.99,10.0,South,6.9,-,N/A,,Clear,170,2012-11-02 02:55:00
10:15 PM,73.4,68.0,83,30.00,10.0,South,6.9,-,N/A,,Clear,180,2012-11-02 03:15:00
10:35 PM,71.6,68.0,88,30.00,10.0,South,5.8,-,N/A,,Clear,190,2012-11-02 03:35:00
10:55 PM,71.6,66.2,83,30.00,10.0,South,5.8,-,N/A,,Clear,190,2012-11-02 03:55:00
11:15 PM,69.8,66.2,88,30.00,10.0,South,5.8,-,N/A,,Clear,190,2012-11-02 04:15:00
11:35 PM,69.8,66.2,88,30.00,10.0,South,4.6,-,N/A,,Clear,190,2012-11-02 04:35:00
11:55 PM,69.8,66.2,88,30.00,10.0,SSW,5.8,-,N/A,,Clear,210,2012-11-02 04:55:00